Wind_Speed
34 33 31 31 31 32 33 34 35 35 35 35 33 35 34 35 32 31 30 31 31 36 34 32 27 22 24 30 29 26 24 23 23 20 13 20 22 16 16 16 14 17 21 26
31 34 34 33 33 33 33 35 35 36 37 38 38 40 40 34 35 34 34 36 37 38 33 30 31 30 37 27 28 27 26 26 24 20 18 24 21 21 21 18 22 17 6 12
29 31 34 35 35 35 35 34 34 37 39 42 40 43 42 39 40 39 40 40 37 34 36 36 39 38 39 31 31 28 26 26 27 17 16 17 16 13 16 17 18 15 13 12
28 29 30 33 35 37 36 37 38 35 37 40 42 43 40 41 43 43 42 41 40 37 36 37 37 36 36 32 31 29 30 27 28 24 27 16 16 13 13 19 19 21 17 31
28 29 29 30 32 35 36 37 38 37 39 36 37 40 41 39 41 42 42 42 42 44 40 38 38 38 38 35 34 32 30 27 27 28 22 22 22 20 21 16 19 18 15 20
27 28 29 29 30 32 33 35 37 38 40 37 37 40 42 42 45 40 43 43 45 43 44 48 45 39 38 38 33 30 31 28 28 28 19 16 23 20 19 18 18 18 19 18
29 28 28 28 29 31 32 33 34 38 38 38 37 42 42 43 42 44 42 41 41 50 44 41 38 39 39 36 35 34 32 29 29 26 20 23 19 14 18 18 19 20 21 22
29 29 29 28 27 28 30 33 34 35 38 39 43 41 39 42 43 42 42 42 47 40 38 38 40 40 40 39 38 36 34 30 30 31 29 22 17 20 27 20 23 19 23 26
28 29 30 29 27 27 29 31 34 35 36 39 40 40 41 42 40 43 44 46 41 41 40 40 41 40 38 40 38 37 37 34 34 32 32 27 17 19 29 26 30 24 26 31
27 28 30 30 28 27 27 30 32 34 35 37 38 41 43 43 44 44 44 45 43 44 42 42 41 40 40 39 39 40 38 38 36 33 35 31 21 32 29 28 25 30 33 23
25 26 29 30 28 27 27 28 29 30 33 35 38 40 41 43 44 43 48 43 41 43 43 43 42 42 41 43 40 37 42 40 38 36 37 36 34 32 32 29 29 31 34 34
24 26 28 29 28 26 25 25 26 27 30 31 35 37 40 42 44 43 47 42 44 44 44 43 42 42 43 44 43 43 40 36 29 34 31 38 38 36 34 32 28 28 30 34
23 25 26 28 27 24 22 22 23 24 26 29 32 34 36 40 42 45 43 46 47 43 41 42 42 46 45 41 40 33 40 42 38 38 36 43 38 39 36 35 34 32 32 32
22 24 25 27 26 23 21 20 19 20 22 24 27 30 33 36 39 42 45 45 41 42 41 43 44 45 43 42 39 42 37 39 38 40 45 42 44 41 37 37 37 37 36 35
21 24 25 26 25 22 20 18 18 18 18 19 20 24 27 32 35 38 40 42 41 41 42 43 41 42 48 45 45 44 39 44 36 43 50 45 44 38 38 39 39 38 38 37
20 26 26 26 25 22 20 18 17 16 15 16 18 19 23 27 30 31 34 36 39 38 39 42 42 47 44 41 41 43 48 48 45 50 45 42 43 42 43 41 40 39 38 38
20 25 27 27 25 22 20 18 17 16 15 14 15 16 19 20 23 25 26 28 32 35 37 39 40 42 41 42 43 46 48 47 46 44 44 46 47 46 41 42 43 44 41 41
21 26 27 29 25 22 20 19 17 16 15 14 14 13 16 17 19 21 24 25 27 29 31 33 35 38 38 39 41 44 46 47 42 46 48 49 51 46 48 46 45 45 42 41
23 27 28 30 25 23 21 20 17 17 16 15 14 13 12 14 14 14 16 17 19 22 24 26 28 29 32 33 36 39 44 46 42 46 46 46 49 49 49 45 46 47 44 40
25 27 29 31 26 24 23 21 20 18 15 13 12 13 14 14 12 13 13 14 17 17 19 20 21 22 22 24 28 31 35 39 42 46 46 46 50 48 47 45 40 44 45 43
27 28 29 30 27 25 24 23 21 18 15 12 10 10 10 12 13 13 13 13 13 15 17 18 18 18 22 23 23 24 26 29 32 37 40 42 45 45 41 37 32 35 39 40
29 27 29 29 27 26 25 24 21 18 15 12 11 9 10 12 12 12 11 14 16 17 19 18 19 23 22 22 24 25 27 28 29 30 35 37 41 43 44 42 42 36 35 36
29 28 29 29 26 25 25 23 21 18 15 13 11 11 11 12 12 12 12 11 14 15 15 18 17 18 20 21 22 23 26 27 30 31 33 38 42 45 42 44 42 36 23 37
27 27 29 28 26 24 22 21 20 18 16 13 13 12 13 13 11 12 12 12 11 9 8 9 14 13 14 17 21 26 29 29 29 30 30 33 42 44 49 49 43 44 40 39
28 28 28 27 24 20 19 18 18 16 16 15 13 12 14 14 13 12 10 11 10 9 10 11 10 14 19 22 24 26 29 27 26 27 25 26 29 33 35 45 44 42 44 32
27 27 25 22 21 20 18 16 16 16 15 13 12 13 13 13 10 10 12 12 11 10 11 10 15 19 21 22 22 19 19 18 20 19 18 19 22 24 29 29 30 37 35 32
26 26 25 22 20 18 17 16 16 15 13 11 10 8 10 11 10 11 11 10 10 8 10 14 16 20 20 18 15 13 10 11 12 12 12 18 20 22 24 25 28 29 28 32
Wind_Direction
238 236 230 227 226 224 222 219 220 217 217 216 213 210 213 214 206 209 210 214 218 215 216 216 212 215 231 217 224 230 234 242 239 254 270 250 249 240 256 240 261 251 255 273
236 234 232 228 225 225 221 221 218 219 218 217 216 215 218 215 216 218 216 218 219 224 221 228 218 222 233 222 228 233 236 245 253 251 251 280 271 261 245 239 219 236 245 254
236 233 231 228 225 223 221 221 219 218 218 222 222 222 223 224 224 224 224 225 223 223 226 222 227 227 233 233 234 235 246 248 250 222 268 237 256 273 239 242 232 241 250 240
234 233 231 229 225 223 221 219 221 219 220 222 221 222 224 227 228 227 224 229 225 225 225 225 226 228 234 234 238 241 248 253 255 243 224 244 242 250 266 244 243 224 235 261
234 232 229 226 227 225 222 220 219 219 223 224 223 223 223 225 228 224 227 228 223 224 225 226 228 228 234 238 238 243 249 255 249 244 235 240 247 249 237 231 249 236 250 284
235 232 229 227 226 226 226 223 221 220 222 222 222 224 224 223 227 222 223 222 221 224 225 223 227 229 234 242 245 248 250 247 248 250 240 249 254 250 245 242 242 236 248 255
236 234 230 230 228 228 227 226 224 223 224 222 221 225 223 224 226 228 224 222 223 227 228 228 230 232 236 239 242 244 242 241 244 241 225 233 252 238 232 244 238 241 246 256
236 233 230 228 229 229 228 226 226 225 226 223 223 225 224 226 226 230 228 227 226 230 229 230 231 234 237 240 242 242 241 238 238 237 231 234 233 252 257 251 248 238 239 240
237 232 230 227 226 228 229 228 226 227 228 226 228 227 224 226 227 229 228 228 228 227 229 228 232 234 240 240 242 242 243 240 239 239 237 232 229 250 244 258 246 231 230 239
234 232 229 227 225 227 228 228 227 226 229 229 229 228 226 225 226 227 228 229 227 227 229 231 233 234 236 239 241 242 243 245 244 243 246 242 230 237 236 240 238 248 257 265
229 229 228 225 224 226 227 227 226 226 228 229 230 230 229 227 227 228 229 226 228 228 228 228 231 234 238 239 240 243 241 244 244 244 244 246 241 249 245 242 234 235 248 255
229 223 225 224 222 223 226 226 227 227 229 230 231 231 231 230 229 230 233 230 229 227 226 227 230 232 234 235 239 242 246 246 234 240 245 245 247 243 247 253 250 247 244 247
230 220 218 220 219 220 225 227 228 229 230 231 232 231 231 231 231 231 233 230 229 228 227 231 231 229 232 234 233 236 239 241 239 241 242 247 250 250 249 251 253 251 252 254
228 219 213 214 215 217 222 225 226 227 228 231 232 233 231 231 231 232 233 233 232 230 230 229 230 232 233 234 229 229 233 236 234 237 244 248 247 248 248 249 252 254 255 259
227 218 211 209 211 213 216 220 225 223 225 233 232 232 231 230 230 231 232 232 231 230 230 232 232 233 234 233 236 236 234 237 230 238 238 242 249 250 250 249 249 251 255 258
228 215 210 204 205 209 209 213 217 215 221 228 231 227 225 226 227 227 228 229 229 229 229 231 234 236 238 240 241 237 242 243 241 245 249 252 252 250 249 248 249 250 251 254
225 212 207 199 199 202 204 206 208 212 219 220 222 227 222 224 223 222 223 223 224 227 229 232 235 240 235 235 236 242 243 244 244 245 246 245 246 247 248 248 247 248 247 249
222 207 204 197 197 199 198 200 203 204 206 206 215 224 219 218 220 220 220 221 222 224 227 230 234 238 238 238 237 239 245 247 247 243 242 242 245 246 247 247 247 248 247 249
218 202 200 195 194 195 195 195 197 199 200 204 207 210 205 205 206 207 210 215 217 220 224 229 233 237 240 240 240 239 244 244 243 243 245 245 246 247 247 247 248 250 249 245
207 196 196 192 192 192 192 193 194 196 196 199 210 216 218 220 219 220 222 225 226 222 224 230 233 235 238 240 241 243 246 247 246 245 242 241 244 246 245 244 244 247 250 249
199 191 191 190 190 191 194 195 195 194 192 194 201 212 209 212 212 214 216 212 216 218 231 234 239 243 243 242 244 245 245 246 247 246 244 241 242 241 240 237 234 232 246 244
188 185 188 188 188 191 195 197 197 197 197 203 209 215 210 205 210 218 222 225 230 231 233 241 247 245 252 247 247 249 252 253 253 251 247 246 238 237 234 229 220 230 240 239
183 186 186 186 187 191 196 199 199 200 203 212 214 217 213 206 213 222 232 241 243 246 253 248 246 246 246 251 252 253 256 259 260 259 254 242 236 234 231 221 223 218 239 232
180 183 185 186 187 192 195 199 200 204 212 216 215 215 214 214 213 217 222 237 241 237 236 236 237 239 254 264 273 274 274 274 270 259 249 246 239 232 221 214 210 214 224 233
180 180 183 185 186 188 191 196 198 204 209 212 217 217 210 216 214 221 229 226 230 220 223 231 253 270 273 272 276 267 282 261 261 253 248 244 247 241 231 229 213 219 226 227
181 180 179 178 182 185 186 187 190 198 204 208 212 218 221 206 203 215 220 218 208 228 240 253 275 276 276 281 285 274 272 258 247 236 232 232 222 214 216 212 225 231 239 235
176 177 177 176 180 183 185 184 193 198 200 204 204 198 196 208 223 224 221 211 219 241 266 277 280 282 287 282 275 265 251 242 233 222 222 212 217 213 207 211 224 229 235 232
Height
5749 5752 5756 5760 5764 5768 5773 5778 5782 5787 5793 5799 5805 5810 5816 5818 5826 5830 5836 5841 5845 5850 5854 5860 5865 5870 5871 5873 5877 5881 5885 5887 5889 5890 5892 5890 5892 5895 5896 5898 5901 5900 5899 5896
5741 5745 5749 5753 5757 5762 5766 5770 5776 5780 5786 5792 5798 5803 5807 5813 5820 5825 5830 5835 5841 5846 5851 5855 5859 5863 5859 5870 5873 5875 5878 5881 5883 5886 5889 5884 5886 5888 5889 5891 5892 5893 5893 5899
5734 5737 5741 5746 5750 5755 5760 5764 5769 5773 5778 5783 5790 5795 5801 5806 5811 5817 5822 5826 5833 5840 5843 5848 5852 5856 5858 5864 5865 5869 5872 5874 5877 5885 5879 5880 5880 5882 5884 5886 5888 5891 5893 5896
5726 5730 5733 5738 5742 5747 5752 5756 5759 5766 5771 5776 5781 5786 5793 5798 5803 5809 5814 5819 5827 5831 5836 5840 5845 5849 5850 5856 5859 5862 5864 5867 5870 5873 5876 5879 5880 5882 5883 5883 5883 5884 5889 5880
5719 5722 5726 5730 5734 5739 5743 5748 5753 5758 5762 5769 5775 5779 5785 5791 5794 5800 5806 5811 5817 5822 5828 5834 5838 5838 5845 5848 5851 5854 5857 5861 5862 5864 5869 5873 5874 5875 5877 5880 5880 5880 5882 5876
5712 5715 5719 5723 5727 5731 5735 5740 5745 5750 5754 5761 5766 5770 5775 5781 5783 5792 5795 5801 5807 5815 5818 5818 5824 5833 5838 5840 5845 5848 5851 5855 5856 5859 5863 5869 5870 5870 5872 5874 5877 5878 5879 5879
5704 5708 5711 5715 5719 5723 5728 5732 5737 5742 5747 5753 5757 5759 5766 5772 5778 5781 5787 5795 5802 5798 5810 5818 5823 5825 5829 5833 5836 5839 5844 5848 5850 5853 5857 5861 5866 5867 5868 5869 5871 5873 5874 5872
5696 5700 5704 5708 5712 5716 5720 5724 5729 5734 5738 5743 5747 5753 5759 5763 5768 5776 5780 5786 5787 5799 5806 5811 5813 5817 5820 5825 5828 5832 5837 5841 5844 5846 5849 5855 5860 5859 5860 5862 5863 5867 5867 5865
5688 5693 5696 5700 5704 5709 5713 5716 5721 5725 5730 5733 5740 5746 5751 5755 5761 5765 5771 5775 5785 5789 5795 5800 5803 5810 5816 5817 5821 5826 5828 5833 5836 5840 5842 5845 5854 5857 5853 5853 5854 5858 5856 5855
5681 5685 5689 5693 5697 5701 5705 5709 5713 5717 5721 5727 5730 5735 5741 5746 5750 5756 5761 5766 5776 5780 5786 5791 5797 5802 5807 5810 5813 5817 5821 5824 5828 5833 5833 5837 5843 5840 5844 5847 5851 5847 5841 5842
5674 5678 5682 5687 5691 5695 5699 5702 5705 5709 5713 5718 5722 5727 5732 5737 5742 5748 5749 5761 5767 5772 5777 5783 5788 5793 5798 5802 5805 5807 5812 5816 5820 5824 5825 5829 5830 5835 5837 5838 5840 5840 5840 5840
5667 5671 5675 5680 5684 5688 5692 5696 5699 5702 5706 5711 5713 5717 5722 5728 5733 5738 5743 5752 5756 5762 5768 5774 5779 5785 5787 5791 5797 5799 5806 5809 5812 5817 5819 5816 5820 5823 5828 5829 5833 5834 5836 5836
5661 5665 5669 5674 5678 5682 5686 5690 5693 5696 5699 5703 5706 5709 5713 5718 5722 5728 5734 5738 5745 5753 5760 5765 5771 5773 5777 5783 5790 5792 5795 5798 5803 5805 5809 5805 5812 5814 5818 5821 5824 5826 5827 5828
5656 5659 5663 5668 5673 5677 5681 5684 5687 5691 5694 5696 5698 5701 5704 5708 5713 5718 5723 5731 5737 5744 5749 5754 5759 5763 5768 5773 5777 5781 5784 5787 5794 5796 5794 5799 5799 5805 5810 5812 5815 5817 5819 5821
5650 5654 5658 5663 5668 5672 5676 5679 5683 5686 5689 5691 5693 5693 5697 5700 5704 5709 5714 5720 5726 5733 5738 5744 5750 5753 5754 5762 5766 5772 5775 5776 5784 5783 5779 5787 5790 5798 5800 5802 5805 5807 5810 5812
5644 5648 5653 5658 5663 5668 5671 5675 5679 5681 5684 5686 5688 5689 5691 5694 5697 5702 5706 5711 5717 5722 5727 5732 5737 5740 5748 5754 5757 5761 5760 5764 5771 5770 5776 5780 5780 5786 5788 5792 5795 5798 5801 5803
5639 5643 5648 5653 5659 5663 5668 5672 5675 5678 5680 5682 5684 5685 5688 5690 5693 5696 5700 5704 5708 5713 5718 5722 5727 5731 5736 5740 5745 5745 5749 5754 5759 5763 5766 5767 5768 5771 5779 5780 5783 5785 5791 5792
5634 5639 5644 5649 5655 5660 5664 5668 5672 5674 5677 5679 5682 5683 5685 5687 5689 5692 5695 5698 5702 5706 5710 5714 5718 5721 5725 5729 5734 5735 5737 5741 5748 5750 5752 5754 5756 5762 5763 5768 5771 5773 5778 5783
5630 5634 5640 5646 5652 5657 5661 5665 5669 5672 5676 5677 5680 5682 5684 5686 5688 5690 5692 5695 5698 5700 5703 5707 5710 5712 5715 5718 5721 5725 5725 5729 5733 5735 5740 5743 5744 5749 5752 5758 5760 5762 5767 5773
5626 5631 5637 5643 5649 5653 5658 5663 5667 5670 5673 5675 5678 5680 5682 5684 5686 5688 5691 5692 5694 5696 5700 5701 5703 5706 5708 5709 5711 5714 5716 5718 5720 5723 5727 5729 5729 5736 5741 5745 5751 5752 5755 5759
5623 5628 5634 5641 5646 5651 5656 5660 5664 5668 5671 5674 5676 5677 5679 5682 5684 5685 5687 5688 5690 5693 5696 5698 5698 5700 5701 5703 5704 5706 5707 5708 5710 5711 5714 5717 5719 5724 5729 5735 5739 5744 5743 5747
5621 5626 5632 5638 5643 5649 5654 5658 5662 5666 5670 5672 5674 5676 5678 5679 5681 5682 5684 5686 5688 5689 5690 5691 5693 5692 5695 5695 5696 5697 5698 5699 5701 5702 5704 5706 5709 5712 5717 5723 5729 5734 5735 5738
5619 5624 5630 5636 5642 5647 5652 5656 5661 5664 5668 5670 5672 5674 5675 5677 5679 5680 5681 5683 5684 5685 5685 5686 5687 5687 5687 5688 5689 5690 5691 5691 5691 5692 5693 5695 5698 5701 5707 5713 5718 5724 5733 5730
5618 5623 5630 5635 5641 5645 5651 5655 5659 5663 5665 5667 5669 5670 5673 5674 5676 5677 5678 5680 5681 5681 5682 5682 5681 5682 5682 5682 5681 5681 5681 5681 5680 5681 5682 5683 5685 5689 5696 5703 5708 5713 5719 5723
5617 5623 5629 5634 5640 5645 5650 5654 5657 5660 5662 5664 5666 5668 5670 5671 5673 5674 5675 5677 5677 5678 5678 5678 5677 5677 5676 5675 5674 5673 5671 5670 5671 5672 5673 5674 5676 5680 5686 5691 5699 5706 5712 5717
5617 5623 5629 5635 5640 5644 5648 5652 5655 5657 5659 5661 5663 5665 5667 5669 5671 5672 5672 5674 5675 5675 5674 5674 5674 5672 5669 5668 5666 5664 5663 5663 5664 5665 5666 5667 5669 5674 5682 5687 5693 5698 5705 5710
5618 5624 5629 5634 5639 5643 5647 5649 5652 5655 5658 5659 5661 5663 5665 5667 5668 5669 5670 5670 5671 5672 5672 5670 5668 5666 5664 5661 5659 5660 5659 5660 5660 5661 5662 5664 5667 5672 5677 5684 5689 5694 5697 5703